"Pseudo-MPEC" for X76426

Created 2021 Nov 28 16:07:38 UT using Find_Orb

Click here for an explanation of pseudo-MPECs

 
 Astrometry: 
     X76426   C2021 11 13Pfx[8C(]6;=.DDD:m?j$-.gF3wlq;@ml`k'Rh/6XJSgHwe=D+-#8D29
     X76426   C2021 11 13oj8Astrometry(A*Sredacted;6%F(?kcrYr.8w;YElD7)J:us^4D29
     X76426   C2021 11 13V%r/;QVxqGaC[ZclickQM1lhere,V^*forsOhexplanationwCcpD29

Station data:
(D29) Purple Mountain Observatory, XuYi Station  (N32.734366 E118.463900)
   China.  Observers H. B. Zhao, B. Li, G. Zhaori, R. Q. Hong, L. F. Hu.
   Measurers H. B. Zhao, B. Li. H. Lu, G. Zhaori. 1.04-m f/1.8 Schmidt + CCD.

Orbital elements:  X76426
   Perihelion 2021 Nov 28.513364 +/- 41.4464 TT = 12:19:14 (JD 2459547.013364)
Epoch 2021 Nov 14.0 TT = JDT 2459532.5   Earth MOID: 0.4498   Ju: 0.8084
M 357.31555241 +/- 23.541130        Ma: 0.0092                AutoNEOCP
n   0.18496384 +/- 0.246861         Peri.  205.79777 +/- 75.269727
a   3.05078415 +/- 2.74495          Node   223.28191 +/- 64.189983
e   0.5338205 +/- 0.250072          Incl.   15.31812 +/- 6.3532123
P   5.33                   H 22.1   G  0.15   U 11.8  SR
q 1.42221296 +/- 0.391273    Q 4.67935534 +/- 45.8918
From 3 observations 2021 Nov. 13 (50.9 min); mean residual 0".14
Residuals in arcseconds: 
211113 D29  .13+  .04-    211113 D29  .27-  .09+    211113 D29  .13+  .04-    

Ephemerides (geocentric):
Date (UTC) HH   RA              Dec         delta   r     elong  mag " sig PA
---- -- -- --  -------------   -----------  ------ ------ -----  --- ---- ---
2021 11 28 16  04 56 58.185   +01 33 09.65  .45862 1.4222 158.0 22.0  74d   6
2021 11 28 17  04 56 58.795   +01 31 49.57  .45865 1.4222 158.0 22.0  74d   6
2021 11 28 18  04 56 59.404   +01 30 29.56  .45867 1.4222 158.0 22.0  74d   6
2021 11 28 19  04 57 00.011   +01 29 09.61  .45870 1.4222 158.0 22.0  74d   6
2021 11 28 20  04 57 00.616   +01 27 49.73  .45873 1.4222 158.0 22.0  74d   6
2021 11 28 21  04 57 01.219   +01 26 29.91  .45876 1.4222 158.0 22.0  74d   6
2021 11 28 22  04 57 01.821   +01 25 10.15  .45878 1.4222 158.0 22.0  74d   6
2021 11 28 23  04 57 02.420   +01 23 50.46  .45881 1.4222 158.0 22.0  74d   6
2021 11 29 00  04 57 03.018   +01 22 30.83  .45884 1.4222 157.9 22.0  74d   6
2021 11 29 01  04 57 03.614   +01 21 11.26  .45887 1.4222 157.9 22.0  72d   7
2021 11 29 02  04 57 04.208   +01 19 51.76  .45890 1.4222 157.9 22.0  73d   7
2021 11 29 03  04 57 04.801   +01 18 32.33  .45893 1.4222 157.9 22.0  73d   7
2021 11 29 04  04 57 05.392   +01 17 12.96  .45896 1.4222 157.9 22.0  73d   7
2021 11 29 05  04 57 05.981   +01 15 53.65  .45899 1.4222 157.9 22.0  73d   7
2021 11 29 06  04 57 06.568   +01 14 34.41  .45902 1.4222 157.9 22.0  73d   7
2021 11 29 07  04 57 07.153   +01 13 15.23  .45905 1.4222 157.9 22.0  73d   7
2021 11 29 08  04 57 07.737   +01 11 56.12  .45908 1.4222 157.9 22.0  73d   7
2021 11 29 09  04 57 08.319   +01 10 37.08  .45912 1.4222 157.9 22.0  73d   6
2021 11 29 10  04 57 08.899   +01 09 18.10  .45915 1.4222 157.8 22.0  73d   6
2021 11 29 11  04 57 09.478   +01 07 59.18  .45918 1.4222 157.8 22.0  73d   6
2021 11 29 12  04 57 10.055   +01 06 40.34  .45921 1.4223 157.8 22.0  73d   6
2021 11 29 13  04 57 10.630   +01 05 21.56  .45925 1.4223 157.8 22.0  73d   6
2021 11 29 14  04 57 11.204   +01 04 02.84  .45928 1.4223 157.8 22.0  73d   6
2021 11 29 15  04 57 11.776   +01 02 44.19  .45931 1.4223 157.8 22.0  73d   6
2021 11 29 16  04 57 12.346   +01 01 25.61  .45935 1.4223 157.8 22.0  73d   6
2021 11 29 17  04 57 12.914   +01 00 07.10  .45938 1.4223 157.8 22.0  73d   6
2021 11 29 18  04 57 13.481   +00 58 48.65  .45942 1.4223 157.8 22.0  73d   6
2021 11 29 19  04 57 14.046   +00 57 30.27  .45945 1.4223 157.8 22.0  73d   6
2021 11 29 20  04 57 14.610   +00 56 11.96  .45949 1.4223 157.7 22.0  73d   6
2021 11 29 21  04 57 15.172   +00 54 53.72  .45952 1.4223 157.7 22.0  73d   6
2021 11 29 22  04 57 15.732   +00 53 35.54  .45956 1.4223 157.7 22.0  73d   6
2021 11 29 23  04 57 16.290   +00 52 17.43  .45960 1.4223 157.7 22.0  73d   6
2021 11 30 00  04 57 16.847   +00 50 59.39  .45963 1.4223 157.7 22.0  73d   6
2021 11 30 01  04 57 17.403   +00 49 41.42  .45967 1.4223 157.7 22.0  73d   6
2021 11 30 02  04 57 17.957   +00 48 23.52  .45971 1.4223 157.7 22.0  73d   6
2021 11 30 03  04 57 18.509   +00 47 05.68  .45974 1.4223 157.7 22.0  73d   6
2021 11 30 04  04 57 19.059   +00 45 47.92  .45978 1.4223 157.7 22.0  73d   6
2021 11 30 05  04 57 19.608   +00 44 30.22  .45982 1.4223 157.6 22.0  73d   6
2021 11 30 06  04 57 20.156   +00 43 12.59  .45986 1.4223 157.6 22.0  73d   6
2021 11 30 07  04 57 20.702   +00 41 55.04  .45990 1.4223 157.6 22.0  73d   6
2021 11 30 08  04 57 21.246   +00 40 37.55  .45993 1.4223 157.6 22.0  73d   6
2021 11 30 09  04 57 21.789   +00 39 20.13  .45997 1.4223 157.6 22.0  73d   6
2021 11 30 10  04 57 22.330   +00 38 02.78  .46001 1.4224 157.6 22.0  73d   7
2021 11 30 11  04 57 22.870   +00 36 45.50  .46005 1.4224 157.6 22.0  73d   7
2021 11 30 12  04 57 23.408   +00 35 28.29  .46009 1.4224 157.6 22.0  73d   7
2021 11 30 13  04 57 23.944   +00 34 11.15  .46013 1.4224 157.5 22.0  73d   7
2021 11 30 14  04 57 24.479   +00 32 54.09  .46018 1.4224 157.5 22.0  73d   7
2021 11 30 15  04 57 25.013   +00 31 37.09  .46022 1.4224 157.5 22.0  74d   7